Location: Brienzwiler
(46.7508°N, 8.1014°E)
Time: 08:15:47
(UTC+00:00)

Cosmos 1959 Rocket - Pass Details

Date: 05 July 2020
Orbit: 948 x 996 km, 82.9° (Epoch: 05 August)

Event Time Altitude Azimuth Distance (km) Brightness Sun altitude
Exits shadow 23:06:19 37° 177° (S) 1,445 4.9 -20.3°
Maximum altitude 23:08:55 79° 96° (E) 981 4.4 -20.4°
Drops below altitude 10° 23:15:07 10° 11° (N) 2,718 7.9 -20.5°
Sets 23:17:39 0° 10° (N) 3,676 8.9 -20.5°
